Flag for Netherlands Weather past 2 weeks in Hilversum, Netherlands

Now
64 °F

Overcast.


Feels Like: 64 °F
Forecast: 57 / 73 °F
Wind: 2 mph from North

Location: De Bilt

Current Time: Jul 30, 2014 at 3:18:04 AM

Latest Report: Jul 30, 2014 at 2:00 AM


Visibility: 28 mi

Pressure: 29.89 "Hg

Humidity: 87%

Dew point: 60 °F

Location of HilversumLocation

Historic Weather in Hilversum — Graph

°F

Hilversum temperature yesterday

Maximum temperature yesterday: 78 °F (at 2:00 PM)
Minimum temperature yesterday: 63 °F (at 3:00 AM)
Average temperature yesterday: 70 °F

Past Weeks' High & Low Weather Summary

 TemperatureHumidityPressure
High90 °F (Jul 19, 3:00 PM)100% (Jul 16, 2:00 AM)30.19 "Hg (Jul 16, 2:00 AM)
Low56 °F (Jul 16, 4:00 AM)31% (Jul 19, 2:00 PM)29.76 "Hg (Jul 20, 6:00 AM)
Average70 °F77%29.99 "Hg
* Reported Jul 15 2:00 AM — Jul 30 2:00 AM, Hilversum, Weather by CustomWeather, © 2014

Note: Actual official high and low records may vary slightly from our data, if they occured in-between our weather recording intervals... More about our weather records

Advertising

Hilversum weather history for previous 24 hours

 ConditionsComfort  
Time TempWeatherWind HumidityBarometerVisibility
2:00 AM
Jul 30
64 °FOvercast.2 mph87%29.89 "Hg28 mi
1:00 AM64 °FPassing clouds.3 mph88%29.90 "Hg28 mi
12:00 AM65 °FPassing clouds.3 mph87%29.90 "Hg28 mi
11:00 PM
Jul 29
67 °FOvercast.3 mph83%29.89 "Hg28 mi
10:00 PM68 °FOvercast.5 mph79%29.89 "Hg28 mi
9:00 PM69 °FPassing clouds.5 mph80%29.88 "Hg28 mi
8:00 PM71 °FPartly sunny.6 mph78%29.87 "Hg28 mi
7:00 PM73 °FPassing clouds.7 mph77%29.85 "Hg22 mi
6:00 PM76 °FPassing clouds.7 mph73%29.85 "Hg17 mi
5:00 PM75 °FPassing clouds.7 mph74%29.85 "Hg19 mi
4:00 PM78 °FPassing clouds.7 mph70%29.85 "Hg17 mi
3:00 PM78 °FScattered clouds.7 mph72%29.87 "Hg14 mi
2:00 PM78 °FPartly sunny.5 mph70%29.88 "Hg17 mi
1:00 PM78 °FPassing clouds.5 mph66%29.88 "Hg19 mi
12:00 PM76 °FScattered clouds.5 mph70%29.88 "Hg16 mi
11:00 AM74 °FOvercast.3 mph81%29.88 "Hg13 mi
10:00 AM69 °FRain. Low clouds.3 mph94%29.89 "Hg7 mi
9:00 AM67 °FRain showers. Low clouds.3 mph96%29.89 "Hg7 mi
8:00 AM67 °FLow clouds.5 mph94%29.89 "Hg9 mi
7:00 AM67 °FLow clouds.3 mph95%29.88 "Hg8 mi
6:00 AM66 °FFog.3 mph97%29.88 "Hg5 mi
5:00 AM65 °FFog.3 mph98%29.88 "Hg3 mi
4:00 AM64 °FFog.3 mph99%29.89 "Hg2 mi
3:00 AM63 °FFog.2 mph99%29.89 "Hg2 mi
Weather by CustomWeather, © 2014

See weather overviewHow to use our weather pages